Regional Weather Roundup
Issued by NWS Charleston, WV

Home | Current Version | Previous Version | Graphics & Text | Print | Product List | Glossary On
Versions: 1 2 3 4 5 6 7 8 9 10 11 12 13 14 15 16 17 18 19 20 21 22 23 24 25 26 27 28 29 30 31 32 33 34 35 36 37 38 39 40 41 42 43 44 45 46 47 48 49 50
000
ASUS41 KRLX 030010
RWRRLX
West Virginia Regional Weather Roundup
National Weather Service Charleston WV
700 PM EST FRI DEC 02 2016

Note: "fair" indicates few or no clouds below 12,000 feet with no
significant weather and/or obstructions to visibility.

WVZ003-030100-
Northern Panhandle of West Virginia

CITY           SKY/WX    TMP DP  RH WIND       PRES   REMARKS
WHEELING       CLOUDY    35  29  78 W12       30.14S
$$

WVZ009-030100-
Northwest West Virginia

CITY           SKY/WX    TMP DP  RH WIND       PRES   REMARKS
PARKERSBURG    CLOUDY    36  33  89 W9        30.25R
$$

WVZ006-030100-
Western West Virginia

CITY           SKY/WX    TMP DP  RH WIND       PRES   REMARKS
HUNTINGTON     CLOUDY    39  28  64 SW3       30.27R
$$

WVZ015-030100-
West Central West Virginia

CITY           SKY/WX    TMP DP  RH WIND       PRES   REMARKS
CHARLESTON     CLOUDY    38  28  67 W7        30.25R
$$

WVZ022-031-030100-
North Central West Virginia

CITY           SKY/WX    TMP DP  RH WIND       PRES   REMARKS
CLARKSBURG     LGT SNOW  34  32  92 W8        30.19R FOG
MORGANTOWN     CLOUDY    36  31  82 SW7       30.18R
$$

WVZ025-035-042-045-030100-
Southern West Virginia

CITY           SKY/WX    TMP DP  RH WIND       PRES   REMARKS
BECKLEY        CLOUDY    34  26  72 NW16G23   30.17R
LOGAN          CLOUDY    36  28  75 CALM      30.23R
BLUEFIELD      CLEAR     33  26  75 NW10      30.15R
LEWISBURG      CLOUDY    33  27  76 NW7G18    30.15R
$$

WVZ047-030100-
Northern Mountains of West Virginia

CITY           SKY/WX    TMP DP  RH WIND       PRES   REMARKS
ELKINS         CLOUDY    33  25  72 VRB7      30.17R
$$

WVZ052-030100-
Eastern Panhandle of West Virginia

CITY           SKY/WX    TMP DP  RH WIND       PRES   REMARKS
MARTINSBURG    CLOUDY    41  27  57 W6G18     30.10R
PETERSBURG     CLOUDY    40  27  59 W3        30.14S
$$



USA.gov is the U.S. government's official web portal to all federal, state and local government web resources and services.